EW7556 Weather Reports


time (UTC)temp
C
wind
direction
speed
KPH
gust
KPH
rain 1hr
cm
rain 24hr
cm
rain mn
cm
humidity
%
barometer
mb
20260509093030 7 196 0.0 1.6 0.00 0.00 0.00 92 1023.0
20260509091541 6 196 0.0 1.6 0.00 0.00 0.00 92 1023.0
20260509090049 6 196 0.0 1.6 0.00 0.00 0.00 92 1023.1
20260509084535 6 196 0.0 1.6 0.00 0.00 0.00 92 1023.1
20260509083040 5 196 0.0 0.0 0.00 0.00 0.00 92 1023.3
20260509081543 5 196 0.0 1.6 0.00 0.00 0.00 92 1023.3
20260509080040 5 196 0.0 1.6 0.00 0.00 0.00 91 1023.3
20260509074526 5 196 0.0 0.0 0.00 0.00 0.00 91 1023.3
20260509073031 5 196 0.0 0.0 0.00 0.00 0.00 91 1023.3
20260509071533 5 196 0.0 0.0 0.00 0.00 0.00 91 1023.2
20260509070018 6 196 0.0 0.0 0.00 0.00 0.00 91 1023.1
20260509064523 6 196 0.0 0.0 0.00 0.00 0.00 90 1023.2
20260509063026 6 196 0.0 3.2 0.00 0.00 0.00 90 1023.1
20260509061529 6 196 0.0 0.0 0.00 0.00 0.00 90 1023.1
20260509060014 7 196 0.0 0.0 0.00 0.00 0.00 89 1023.1
20260509054525 7 196 0.0 0.0 0.00 0.00 0.00 89 1023.1
20260509053057 7 196 0.0 0.0 0.00 0.00 0.00 88 1023.0
20260509051542 8 196 0.0 0.0 0.00 0.00 0.00 87 1023.0
20260509050036 8 196 0.0 0.0 0.00 0.00 0.00 84 1023.0
20260509044524 10 196 0.0 0.0 0.00 0.00 0.00 84 1023.0
20260509043028 10 196 0.0 0.0 0.00 0.00 0.00 82 1022.9
20260509041532 11 196 0.0 1.6 0.00 0.00 0.00 80 1022.8
20260509040017 11 210 0.0 1.6 0.00 0.00 0.00 80 1022.7
20260509034520 11 210 0.0 3.2 0.00 0.00 0.00 78 1022.6
20260509033022 11 213 0.0 4.8 0.00 0.00 0.00 76 1022.5
20260509031525 12 213 0.0 4.8 0.00 0.00 0.00 75 1022.5
20260509030025 12 231 1.6 6.4 0.00 0.00 0.00 74 1022.5
20260509024514 12 220 1.6 6.4 0.00 0.00 0.00 74 1022.4
20260509023026 12 233 0.0 6.4 0.00 0.00 0.00 74 1022.3
20260509021522 12 238 1.6 8.0 0.00 0.00 0.00 74 1022.2
20260509020007 12 216 1.6 9.7 0.00 0.00 0.00 74 1022.1
20260509014520 12 197 1.6 8.0 0.00 0.00 0.00 73 1022.1
20260509013027 12 219 3.2 9.7 0.00 0.00 0.00 71 1022.1
20260509011530 13 236 3.2 8.0 0.00 0.00 0.00 69 1022.1
20260509010014 13 245 3.2 9.7 0.00 0.00 0.00 69 1022.1
20260509004526 13 245 4.8 11.3 0.00 0.00 0.00 68 1022.2
20260509003042 13 242 3.2 9.7 0.00 0.00 0.00 69 1022.2
20260509001539 13 238 4.8 11.3 0.00 0.00 0.00 69 1022.2
20260509000024 13 207 3.2 8.0 0.00 0.00 0.00 69 1022.2
20260508234529 13 238 3.2 8.0 0.00 0.00 0.00 69 1022.2
20260508233030 13 193 3.2 8.0 0.00 0.00 0.00 67 1022.1
20260508231537 13 261 0.0 4.8 0.00 0.00 0.00 69 1022.1
20260508230020 13 352 1.6 4.8 0.00 0.00 0.00 70 1022.0
20260508224523 13 352 0.0 4.8 0.00 0.00 0.00 70 1021.9
20260508223028 13 300 0.0 3.2 0.00 0.00 0.00 71 1021.9
20260508221527 13 222 0.0 8.0 0.00 0.00 0.00 70 1022.0
20260508220019 12 204 1.6 8.0 0.00 0.00 0.00 71 1022.0
20260508184613 10 236 0.0 11.3 0.00 0.00 0.00 82 1020.8
20260508183100 10 188 4.8 11.3 0.00 0.00 0.00 81 1020.7
20260508181551 10 207 3.2 8.0 0.00 0.00 0.00 81 1020.8
20260508174600 10 228 4.8 11.3 0.00 0.00 0.00 83 1020.5
20260508173100 10 219 3.2 11.3 0.00 0.00 0.00 84 1020.1
20260508171604 10 236 1.6 9.7 0.00 0.00 0.00 84 1020.2
20260508170106 10 198 1.6 8.0 0.00 0.00 0.00 84 1020.1
20260508164552 10 182 3.2 9.7 0.00 0.00 0.00 85 1019.8
20260508163116 10 205 3.2 16.1 0.00 0.00 0.00 85 1019.6
20260508161601 10 218 4.8 11.3 0.00 0.00 0.00 85 1019.3
20260508160103 10 227 6.4 12.9 0.00 0.00 0.00 85 1019.2
20260508154553 10 228 3.2 8.0 0.00 0.00 0.00 85 1019.2
20260508153056 10 191 3.2 6.4 0.00 0.00 0.00 86 1019.2
20260508151554 10 176 3.2 9.7 0.00 0.00 0.00 87 1018.8
20260508150106 10 219 6.4 11.3 0.00 0.00 0.00 88 1019.1
20260508144551 10 188 3.2 8.0 0.00 0.00 0.00 88 1018.9
20260508143053 10 185 3.2 9.7 0.00 0.00 0.00 88 1018.7
20260508141558 9 188 3.2 9.7 0.00 0.00 0.00 88 1018.6
20260508140057 9 120 3.2 12.9 0.00 0.00 0.00 89 1018.4
20260508134544 9 219 3.2 11.3 0.00 0.00 0.00 89 1018.2
20260508133047 9 212 1.6 12.9 0.00 0.00 0.00 90 1018.1
20260508131553 8 186 0.0 6.4 0.00 0.00 0.00 90 1017.7
20260508130104 8 218 1.6 4.8 0.00 0.00 0.00 90 1017.7
20260508124535 8 188 1.6 6.4 0.00 0.00 0.00 90 1017.7
20260508123040 8 215 3.2 8.0 0.00 0.00 0.00 91 1017.6
20260508121541 8 210 3.2 6.4 0.00 0.00 0.00 91 1017.6
20260508120045 8 189 3.2 8.0 0.00 0.00 0.00 91 1017.8
20260508114528 8 220 1.6 6.4 0.00 0.00 0.00 92 1017.5
20260508113037 8 188 1.6 6.4 0.00 0.00 0.00 92 1017.5
20260508111537 7 188 1.6 4.8 0.00 0.00 0.00 92 1017.5
20260508110053 6 214 0.0 3.2 0.00 0.00 0.00 92 1017.3
20260508104525 6 214 0.0 0.0 0.00 0.00 0.00 92 1017.0
20260508103035 6 214 0.0 1.6 0.00 0.00 0.00 92 1017.1
20260508101536 6 214 0.0 0.0 0.00 0.00 0.00 92 1017.0
20260508100016 6 214 0.0 0.0 0.00 0.00 0.00 92 1017.0
20260508094518 6 214 0.0 0.0 0.00 0.00 0.00 92 1016.9